Zurück zum Katalog

ORBCOMM FM 37

AktivKommunikationLEO
NORAD 33064·PAYLOAD·🇺🇸 United States

Gestartet Jun 19, 2008 von Kapustin Yar

Loading…

Nächste Überflüge (nächste 24 Stunden)

TLE

AktuellSource: Space-Track

Epoche: Sep 14, 2026, 15:16 UTC

1 33064U 08031E   26257.63625207  .00000785  00000-0  12635-3 0  9991
2 33064  48.4410 339.8526 0005059 179.5151 333.5911 14.81511996981393

Verfolge ORBCOMM FM 37 in Echtzeit mit AllMySat

Download on the App Store